Temperature
10 9 8 10 11 12 13 15 15 16 18 18 18 18 19 20 20 21 21 22 20 18 16 15 15 15 15 15 15 15 15 15 15 14 14 14 13 13 12 12 12 12 12 12
9 8 10 11 12 12 12 13 14 16 18 19 18 18 19 19 20 21 21 21 20 17 15 14 14 14 14 14 14 14 14 14 14 14 14 13 13 12 12 12 12 12 12 11
8 10 11 11 11 11 12 12 13 15 17 19 18 17 18 19 21 21 21 21 19 16 15 14 14 14 14 14 14 15 15 14 14 14 14 13 13 12 12 11 11 11 11 11
9 10 11 10 10 11 11 13 14 14 15 15 16 15 18 19 19 19 19 20 18 16 15 14 13 13 14 14 14 14 14 14 13 13 13 13 12 12 11 11 11 11 11 11
8 9 9 9 10 11 11 13 13 14 14 15 16 16 17 20 18 18 17 19 17 15 14 13 13 13 14 14 14 14 13 13 13 12 12 12 12 11 11 11 10 10 10 10
9 10 10 10 11 11 11 12 12 13 13 13 15 16 17 19 19 18 17 18 16 15 13 12 12 13 13 13 13 13 13 13 12 12 11 12 11 11 11 10 10 10 9 9
7 8 9 9 9 10 10 10 11 12 12 13 16 16 17 20 20 19 17 16 15 14 13 12 11 12 12 12 12 12 12 12 11 11 11 11 11 10 10 10 9 9 9 8
7 8 9 9 9 9 10 10 11 13 13 15 17 16 18 19 18 19 18 16 15 13 12 11 11 11 11 11 11 11 12 11 11 11 11 10 10 10 9 9 9 8 8 8
8 9 11 10 10 10 10 10 12 14 16 16 16 18 18 17 16 17 16 15 14 13 12 11 11 11 11 11 11 11 11 11 11 10 10 10 9 9 9 8 8 8 7 6
7 8 10 10 10 9 10 11 12 14 16 15 16 17 17 15 15 16 15 14 14 13 12 11 10 10 10 10 10 10 10 10 10 10 9 9 8 8 8 7 7 6 6 5
7 7 9 10 9 10 10 11 13 15 16 17 16 17 19 17 17 16 15 15 14 13 12 11 10 10 9 9 9 10 10 10 9 9 8 8 7 7 7 7 6 5 4 4
7 7 8 10 10 11 11 12 14 15 16 17 17 16 18 17 17 16 16 16 14 13 12 11 10 9 9 9 9 9 9 9 8 8 7 7 7 6 6 5 5 4 3 3
8 7 9 10 10 10 11 13 14 15 16 16 16 16 17 15 16 17 17 16 14 13 12 11 10 9 9 9 9 8 8 8 8 7 7 6 6 5 5 4 4 3 3 2
10 8 9 11 12 12 12 13 14 15 14 16 17 16 17 15 15 15 16 15 14 13 12 10 9 9 8 8 8 8 7 7 7 6 6 6 5 4 4 3 3 2 2 2
10 10 11 13 14 14 14 14 14 14 15 16 18 18 17 16 15 15 16 15 14 13 12 10 9 8 8 7 7 7 7 6 6 6 5 5 4 4 3 3 2 2 1 1
11 11 13 14 15 15 15 14 15 15 15 16 16 18 19 17 17 16 15 15 14 13 11 10 9 8 7 7 7 6 6 5 5 5 5 4 3 3 2 2 1 1 1 1
11 12 13 14 15 15 14 15 15 15 15 16 15 16 18 16 16 15 15 15 14 13 11 10 9 8 7 7 6 5 5 5 4 4 4 3 3 2 2 1 1 0 0 -0
12 12 12 13 14 12 16 17 16 16 16 16 16 17 17 15 14 15 16 15 14 13 11 10 9 8 7 6 5 5 4 4 4 4 3 3 2 1 1 0 0 -0 -0 -1
13 13 12 12 13 14 16 15 16 16 15 16 16 16 13 13 12 11 13 13 13 12 11 10 9 8 6 5 5 4 4 3 3 3 2 2 1 1 0 0 -0 -1 -1 -2
12 12 11 11 12 13 14 14 15 16 15 16 16 15 12 12 10 9 10 11 11 10 10 9 8 7 6 5 4 3 3 3 3 2 1 1 0 -0 -0 -0 -1 -1 -2 -2
10 10 10 11 11 13 13 14 14 14 13 13 15 14 12 11 11 9 9 9 9 9 8 8 7 6 5 4 3 3 3 2 2 1 1 0 -0 -0 -1 -1 -1 -2 -3 -3
10 10 10 10 11 12 13 13 13 12 12 13 13 12 9 8 8 7 8 8 8 8 7 6 6 5 4 3 3 3 2 2 1 0 0 -0 -0 -1 -1 -2 -2 -3 -3 -4
11 11 11 11 11 12 13 12 11 12 12 12 10 10 9 7 7 7 7 7 7 7 6 6 5 4 3 2 2 2 1 1 0 -0 -0 -0 -1 -1 -2 -3 -3 -3 -4 -5
12 12 12 12 11 11 11 11 11 12 11 10 10 9 9 8 7 7 7 7 6 6 6 5 4 3 3 2 1 1 0 -0 -0 -0 -0 -1 -1 -2 -2 -3 -3 -4 -5 -6
12 11 12 12 10 9 10 10 11 10 10 9 9 9 9 8 7 7 7 6 6 5 4 4 3 2 2 1 1 0 -0 -0 -0 -1 -1 -2 -2 -2 -3 -3 -4 -5 -6 -7
10 11 11 11 10 9 9 9 9 9 9 9 8 8 8 8 7 7 6 6 5 4 4 3 2 1 1 0 -0 -0 -0 -1 -1 -1 -2 -2 -3 -3 -3 -4 -5 -5 -7 -8
Wind_Speed
11 10 16 19 22 20 18 17 19 18 17 19 20 19 16 13 13 11 9 8 9 11 10 7 6 7 6 7 8 9 10 10 10 9 8 8 7 7 7 7 11 13 13 13
12 20 22 17 18 22 24 24 20 16 18 19 14 15 13 14 14 12 11 10 11 13 10 8 7 8 8 8 8 9 10 10 10 9 8 7 8 7 6 6 8 12 12 12
24 16 14 18 20 22 25 25 22 17 15 13 8 11 14 14 14 12 10 8 14 16 12 10 9 9 9 9 9 10 11 12 12 12 10 9 7 6 5 6 6 8 11 11
19 23 19 17 21 23 24 25 23 21 14 8 11 6 12 19 18 13 10 9 14 15 13 11 10 10 9 8 8 10 10 10 10 9 8 9 7 6 5 4 5 6 9 10
11 12 19 22 24 24 18 18 24 23 16 10 11 7 7 8 12 12 11 11 15 14 14 12 11 10 9 8 8 9 10 10 10 10 9 9 8 6 5 5 6 6 6 8
17 12 12 18 21 21 17 17 20 17 12 12 12 9 6 8 15 17 13 13 16 15 14 13 11 10 9 8 8 9 10 11 10 10 10 9 9 8 8 7 6 5 5 6
14 19 15 10 12 18 19 15 10 11 10 7 11 8 8 3 6 14 18 17 16 16 15 14 12 10 9 9 8 8 10 10 10 10 10 10 10 9 8 6 6 5 4 4
10 12 16 14 15 12 21 19 8 6 8 6 10 9 4 8 9 12 16 17 16 15 14 13 12 11 10 9 9 9 10 10 10 9 9 8 8 6 5 6 5 5 4 4
7 9 11 16 14 12 13 17 11 4 9 6 7 7 6 7 9 10 15 17 16 15 15 14 12 11 11 10 9 9 10 10 9 9 9 8 8 7 6 6 6 4 4 4
3 7 7 11 10 12 9 8 8 5 7 6 10 10 10 11 11 11 15 17 16 15 15 14 13 12 10 9 10 9 9 9 9 8 7 7 7 6 6 6 6 5 5 5
5 6 4 9 12 14 10 9 8 3 1 3 7 3 3 13 13 13 15 17 17 16 16 14 13 12 11 10 9 9 9 9 9 8 7 8 6 5 5 5 5 5 5 5
9 5 4 5 5 8 9 8 7 3 2 2 3 4 5 10 9 10 12 15 15 15 14 14 13 12 11 10 10 9 8 8 8 7 8 7 5 5 5 5 5 5 5 5
10 5 3 5 4 7 8 8 7 4 1 1 2 5 4 9 8 7 11 14 15 15 14 13 13 12 11 10 10 9 9 9 8 7 7 6 6 5 5 5 5 5 5 6
8 5 5 4 6 8 8 10 10 6 2 2 2 8 6 9 9 8 10 13 14 14 14 13 12 11 11 10 10 9 9 9 8 7 7 6 5 4 4 4 4 5 6 6
5 5 7 6 8 13 11 13 12 11 8 4 3 5 10 11 11 11 11 13 14 15 15 14 13 11 11 10 10 9 9 9 8 8 7 6 4 3 3 4 5 6 6 8
6 6 5 0 3 10 12 15 15 14 12 10 8 4 4 8 10 11 12 12 13 14 13 13 13 12 12 11 10 10 9 8 8 8 7 5 2 2 3 4 5 6 7 8
6 4 3 1 5 4 6 13 15 14 13 12 12 9 1 6 9 11 12 11 11 12 12 12 12 11 11 11 10 10 9 8 8 7 6 4 2 2 3 5 6 7 7 7
7 5 3 1 4 4 4 6 11 13 12 12 9 6 3 7 8 8 6 10 10 11 12 11 11 11 11 10 10 10 9 8 7 6 5 3 1 2 4 5 7 7 7 8
5 3 1 0 3 5 4 1 4 9 9 10 11 7 9 13 9 8 9 9 10 10 10 10 11 12 11 11 11 11 9 8 7 5 4 3 2 3 5 6 7 7 7 8
2 2 0 1 1 2 2 3 5 2 4 3 7 10 14 11 6 5 6 11 12 11 11 12 12 13 12 11 11 10 8 7 6 5 3 2 2 4 6 7 7 6 7 8
5 3 3 2 2 4 2 2 2 4 2 6 3 9 12 6 7 12 12 12 11 11 12 12 12 11 10 10 10 9 8 7 6 4 2 1 3 4 6 5 6 7 8 9
9 7 6 5 4 6 2 1 2 2 1 5 8 13 14 15 16 15 13 12 11 11 11 11 11 10 9 9 9 9 8 7 5 3 1 3 4 4 5 6 7 7 8 8
9 9 7 8 6 2 3 4 3 2 6 8 10 14 17 16 14 13 11 10 10 10 9 10 11 10 8 7 8 9 7 6 4 1 2 3 5 5 5 6 7 7 7 7
5 3 4 5 4 5 4 4 3 7 10 11 12 12 14 15 13 12 11 9 9 9 9 9 10 9 8 7 8 8 7 5 2 1 3 4 5 6 6 5 6 6 6 7
6 6 4 4 6 6 4 4 8 12 13 13 12 12 12 14 12 11 10 9 8 7 7 8 8 9 8 8 7 7 6 4 2 3 4 5 5 5 6 6 6 8 7 10
6 6 7 6 9 7 7 8 11 13 12 13 15 13 10 11 11 10 8 8 8 8 7 8 9 9 8 8 7 6 5 4 3 3 4 4 4 5 6 7 8 12 14 19
Wind_Direction
202 214 220 219 222 236 251 245 234 232 223 227 231 237 238 235 246 243 235 219 159 126 116 125 130 113 95 87 96 100 103 102 102 104 102 97 91 81 70 63 60 56 52 49
221 227 231 233 234 236 245 255 255 247 229 227 231 237 236 229 230 228 225 210 153 126 126 131 120 99 92 88 87 92 97 98 97 98 98 102 102 93 86 73 62 60 53 47
223 231 228 236 236 234 237 241 247 249 242 219 228 250 243 239 233 225 214 190 144 139 140 142 117 96 83 77 80 90 91 96 100 104 107 108 100 96 86 83 77 66 60 49
235 238 238 237 238 232 237 235 241 246 236 214 204 243 235 226 218 207 191 173 142 139 139 135 118 101 90 82 80 87 95 102 112 119 115 112 106 103 99 98 98 89 72 58
229 225 227 236 237 230 236 237 236 239 234 227 201 218 261 227 184 183 182 162 141 139 137 129 120 114 102 90 85 85 84 81 79 81 87 96 97 99 92 81 72 82 75 63
245 238 232 236 236 233 234 242 241 236 229 225 210 207 252 234 188 180 171 150 141 138 133 124 118 113 105 96 91 90 88 79 75 77 77 84 90 87 80 70 58 59 65 55
242 239 231 238 236 230 224 220 205 197 199 206 193 203 231 298 132 158 156 150 145 142 139 136 135 131 126 119 112 106 100 91 83 80 77 75 79 78 70 66 59 53 48 41
226 234 216 212 215 215 218 218 210 175 167 177 186 204 207 124 81 113 140 144 146 147 145 146 145 137 135 134 128 117 109 102 94 89 86 79 76 78 71 63 60 57 51 35
241 242 200 199 195 210 207 216 245 262 164 155 172 182 124 110 112 125 141 148 154 154 151 150 146 140 140 140 131 123 116 109 105 100 93 84 79 77 72 66 56 46 34 23
267 282 208 181 174 214 228 207 223 229 162 164 173 185 175 170 162 158 158 161 161 158 154 152 148 143 142 136 128 127 121 116 105 96 95 94 83 77 75 67 51 32 20 13
192 280 218 167 189 197 201 209 222 241 289 167 152 140 104 154 160 165 170 168 165 161 158 154 149 143 135 128 130 126 121 115 112 112 102 92 79 64 67 64 45 20 7 359
180 243 231 178 177 204 213 208 211 175 181 343 82 95 55 101 116 148 161 161 159 156 153 150 144 138 137 139 138 134 131 122 115 109 102 97 88 66 57 50 31 12 358 346
176 219 185 141 167 197 213 216 236 288 8 251 89 127 114 107 106 127 144 151 153 152 150 146 144 146 149 150 146 143 133 125 119 112 109 101 83 63 47 31 13 356 341 329
188 224 240 206 175 164 176 196 215 225 209 209 157 126 153 134 133 140 142 148 150 154 155 153 153 155 155 153 148 142 131 124 119 110 101 91 78 62 35 13 352 337 325 317
214 258 250 252 173 162 172 190 205 218 230 235 213 158 165 163 157 155 150 149 152 160 162 160 159 159 155 149 145 137 128 124 124 115 105 92 73 55 18 355 336 320 311 307
210 280 286 233 143 165 179 193 205 215 222 240 266 271 126 132 131 140 151 158 163 167 163 158 158 156 153 148 142 132 128 127 123 116 111 104 69 23 0 336 314 303 298 295
195 259 294 155 136 131 208 205 208 217 219 221 231 237 154 124 134 149 157 161 163 160 157 158 158 153 147 141 136 133 126 122 116 113 112 109 61 359 338 319 308 302 301 304
199 242 299 93 137 207 242 194 202 217 224 219 227 228 193 137 101 71 105 141 143 145 148 148 143 137 132 127 125 119 118 118 118 122 128 123 57 336 322 309 303 305 309 310
200 211 294 150 223 244 219 185 196 205 232 214 215 201 122 110 81 42 34 80 103 112 122 125 125 123 121 121 119 117 119 123 128 128 118 89 25 330 311 304 306 310 312 311
126 129 156 344 281 269 64 19 344 131 241 255 201 168 144 129 133 152 96 79 81 86 99 109 113 115 115 117 121 124 130 133 129 116 97 52 327 301 297 301 309 312 313 305
149 151 186 210 260 290 75 344 347 147 226 335 12 137 140 116 115 119 104 89 88 91 98 105 110 114 119 124 127 127 125 119 110 102 83 310 296 296 298 304 305 302 298 298
168 169 180 183 220 248 144 117 65 138 2 28 68 99 101 101 102 102 101 101 102 103 105 110 113 114 117 123 122 118 114 111 110 116 267 289 297 303 306 300 295 295 299 304
182 183 175 189 201 132 79 86 82 109 97 79 89 105 113 111 111 112 111 112 113 115 115 116 119 117 111 107 112 115 114 113 114 114 305 311 315 306 300 299 300 303 303 305
151 172 177 163 160 146 110 99 98 101 99 95 105 109 113 115 118 118 120 120 121 123 124 125 124 122 114 102 96 108 114 115 113 358 329 322 313 306 307 306 303 304 307 309
152 166 175 161 130 128 146 131 111 101 98 95 92 98 110 115 117 121 125 129 131 130 126 128 130 128 125 119 112 112 116 108 59 360 334 320 314 316 314 308 303 310 301 304
172 176 177 197 175 164 163 142 122 115 112 110 106 97 93 106 113 115 118 124 128 128 124 120 119 123 126 128 125 120 109 83 37 346 325 319 321 319 314 311 312 313 315 318
Height
1475 1477 1472 1468 1470 1468 1464 1459 1457 1453 1451 1452 1453 1452 1450 1450 1451 1451 1452 1454 1456 1459 1462 1465 1467 1467 1468 1469 1469 1470 1471 1473 1475 1477 1480 1482 1484 1487 1488 1490 1490 1491 1491 1490
1472 1467 1462 1465 1466 1467 1467 1463 1458 1451 1445 1445 1447 1446 1443 1443 1443 1444 1447 1449 1451 1455 1460 1464 1466 1467 1468 1469 1470 1471 1472 1474 1476 1477 1480 1482 1484 1487 1489 1490 1491 1491 1490 1490
1462 1455 1460 1463 1463 1464 1462 1462 1459 1455 1444 1439 1445 1447 1441 1436 1435 1437 1440 1443 1446 1451 1457 1463 1465 1466 1467 1469 1470 1471 1473 1475 1477 1479 1481 1483 1485 1487 1489 1490 1490 1490 1490 1489
1455 1454 1456 1458 1459 1459 1458 1453 1455 1453 1450 1448 1447 1454 1435 1426 1427 1430 1434 1438 1442 1448 1455 1460 1463 1465 1467 1469 1471 1473 1475 1477 1479 1480 1482 1484 1485 1487 1488 1489 1489 1489 1488 1487
1448 1448 1450 1452 1452 1454 1452 1450 1451 1449 1447 1446 1439 1445 1433 1415 1422 1426 1429 1434 1439 1446 1453 1458 1461 1464 1467 1469 1471 1473 1475 1477 1479 1481 1483 1484 1486 1487 1488 1488 1488 1487 1485 1484
1444 1444 1444 1442 1445 1448 1449 1451 1448 1445 1445 1448 1437 1441 1433 1414 1412 1418 1425 1431 1437 1444 1451 1456 1460 1463 1466 1469 1471 1474 1476 1477 1480 1481 1483 1484 1485 1486 1487 1486 1486 1484 1483 1481
1441 1438 1437 1439 1442 1442 1445 1448 1445 1443 1443 1439 1425 1431 1425 1406 1399 1406 1418 1427 1435 1442 1448 1453 1457 1461 1465 1468 1472 1474 1476 1477 1480 1481 1483 1483 1484 1485 1485 1484 1484 1483 1481 1479
1434 1429 1426 1429 1432 1432 1434 1438 1433 1429 1434 1427 1418 1423 1411 1402 1403 1407 1416 1425 1434 1441 1446 1451 1456 1460 1464 1468 1471 1474 1476 1477 1479 1481 1482 1483 1483 1484 1483 1483 1482 1481 1480 1477
1426 1419 1412 1416 1421 1428 1428 1428 1421 1414 1409 1416 1416 1409 1408 1405 1409 1411 1418 1425 1432 1439 1444 1449 1455 1459 1463 1467 1470 1473 1475 1476 1478 1479 1481 1481 1482 1482 1482 1481 1481 1479 1477 1475
1428 1420 1408 1411 1418 1422 1419 1416 1418 1411 1408 1416 1414 1411 1409 1411 1412 1413 1417 1423 1430 1437 1442 1448 1453 1457 1462 1466 1469 1472 1474 1475 1476 1478 1479 1480 1480 1480 1480 1480 1478 1477 1474 1472
1425 1425 1410 1408 1411 1411 1415 1414 1407 1400 1394 1404 1413 1411 1390 1399 1403 1409 1413 1419 1426 1433 1439 1445 1451 1456 1460 1464 1467 1470 1471 1473 1475 1476 1477 1478 1479 1479 1478 1477 1476 1474 1471 1469
1421 1423 1410 1404 1404 1406 1406 1403 1399 1401 1399 1396 1401 1415 1393 1396 1400 1404 1410 1417 1425 1432 1438 1443 1449 1453 1458 1462 1465 1467 1469 1471 1473 1474 1475 1476 1477 1477 1476 1475 1473 1471 1469 1466
1413 1415 1406 1405 1408 1407 1403 1399 1396 1394 1395 1398 1405 1415 1397 1399 1402 1405 1409 1416 1423 1430 1437 1442 1447 1451 1455 1459 1462 1465 1467 1469 1470 1472 1473 1474 1474 1474 1473 1472 1470 1468 1466 1463
1405 1406 1402 1395 1392 1393 1397 1398 1397 1399 1403 1401 1398 1406 1401 1402 1404 1406 1410 1415 1421 1428 1434 1439 1444 1448 1452 1456 1459 1462 1464 1466 1468 1469 1471 1472 1472 1471 1470 1469 1467 1465 1463 1460
1401 1397 1390 1382 1379 1384 1390 1394 1395 1398 1397 1400 1394 1396 1399 1398 1401 1404 1409 1414 1420 1426 1432 1436 1440 1445 1449 1453 1456 1459 1461 1463 1465 1467 1468 1469 1469 1469 1467 1466 1464 1462 1459 1456
1398 1393 1384 1380 1376 1379 1386 1388 1391 1393 1395 1396 1395 1394 1389 1392 1396 1403 1408 1413 1418 1424 1429 1434 1438 1443 1446 1450 1453 1456 1458 1461 1463 1465 1466 1467 1466 1465 1464 1463 1461 1458 1455 1451
1392 1390 1386 1384 1379 1382 1390 1384 1386 1388 1388 1392 1397 1395 1391 1394 1397 1401 1406 1411 1416 1421 1426 1431 1436 1440 1444 1447 1450 1453 1456 1459 1461 1462 1463 1464 1463 1462 1461 1460 1457 1454 1451 1447
1387 1389 1389 1387 1388 1400 1382 1369 1374 1379 1381 1384 1387 1388 1390 1393 1398 1402 1405 1410 1415 1420 1424 1429 1434 1438 1442 1445 1448 1451 1454 1457 1459 1460 1461 1461 1461 1460 1458 1456 1454 1450 1446 1442
1384 1388 1390 1393 1391 1386 1375 1373 1372 1378 1380 1378 1382 1386 1391 1394 1399 1406 1408 1410 1414 1418 1423 1428 1432 1436 1439 1443 1446 1449 1453 1456 1457 1458 1459 1459 1458 1457 1455 1453 1450 1446 1442 1438
1385 1387 1394 1395 1396 1394 1382 1375 1372 1375 1382 1375 1376 1381 1389 1392 1404 1410 1410 1412 1415 1419 1423 1427 1431 1434 1438 1441 1445 1449 1452 1454 1456 1456 1456 1456 1455 1454 1452 1449 1446 1442 1438 1433
1390 1392 1396 1396 1396 1387 1381 1377 1376 1387 1387 1380 1377 1379 1385 1391 1397 1405 1409 1413 1417 1421 1424 1427 1430 1434 1437 1441 1445 1448 1451 1453 1454 1454 1454 1453 1452 1451 1449 1446 1442 1438 1433 1428
1384 1391 1394 1396 1398 1394 1381 1380 1382 1385 1383 1382 1381 1383 1388 1394 1399 1405 1411 1415 1419 1422 1425 1428 1431 1434 1438 1442 1445 1447 1450 1451 1452 1452 1451 1451 1450 1448 1445 1441 1437 1433 1428 1423
1376 1378 1382 1385 1387 1381 1379 1380 1382 1383 1384 1385 1386 1388 1392 1398 1404 1409 1414 1418 1421 1424 1426 1429 1432 1435 1439 1442 1445 1447 1448 1449 1449 1449 1449 1448 1447 1444 1441 1437 1433 1429 1424 1419
1369 1371 1373 1377 1379 1379 1380 1381 1382 1384 1386 1388 1391 1394 1397 1401 1407 1412 1415 1419 1422 1425 1428 1430 1433 1436 1439 1442 1444 1445 1447 1447 1447 1447 1446 1445 1443 1440 1437 1434 1430 1425 1420 1415
1366 1369 1371 1373 1378 1380 1381 1382 1383 1385 1388 1391 1395 1398 1401 1405 1410 1414 1417 1420 1423 1426 1428 1431 1433 1436 1439 1441 1443 1444 1445 1445 1445 1445 1443 1442 1439 1436 1433 1430 1426 1421 1417 1414
1364 1366 1369 1370 1370 1374 1378 1381 1383 1386 1390 1393 1397 1402 1406 1409 1412 1415 1418 1421 1424 1426 1428 1431 1433 1436 1438 1440 1441 1443 1443 1443 1443 1442 1440 1438 1436 1433 1429 1424 1420 1417 1414 1410